Location: Unspecified
(40.7945°N, 0.0000°E)
Time: 06:17:45
(UTC+00:00)

A-11 Canister half - Pass Details

Date: 26 January 2021
Orbit: 1516 x 1684 km, 47.2° (Epoch: 07 March)

Event Time Altitude Azimuth Distance (km) Brightness Sun altitude
Rises 02:51:00 0° 297° (WNW) 4,664 - -49.6°
Reaches altitude 10° 02:54:12 10° 291° (WNW) 3,678 - -49.0°
Maximum altitude 03:02:42 43° 224° (SW) 2,031 - -47.5°
Drops below altitude 10° 03:11:20 10° 157° (SSE) 3,723 - -46.0°
Exits shadow 03:11:28 10° 156° (SSE) 3,763 11.1 -45.9°
Sets 03:14:36 0° 150° (SSE) 4,725 11.7 -45.4°
